This demonstration page uses our WeatherBlox Daily Observations layout. Learn more.

Left ArrowRight Arrow

36.17497, -115.13722

Hourly Observations for January 27, 2020

Temp ( °F °C ) Dew Point ( °F °C ) Humidity (%) Winds ( mph kmh ) Pressure ( in mb ) Visibility ( mi km ) Precip ( " mm )
12:53 am 00:53 Clear 55 12.8 31 -0.6 40 40 N 13 20 30.14 1021 10 16.0934 0 0
1:53 am 01:53 Clear 54 12.2 28 -2.2 37 37 NW 7 11 30.15 1021 10 16.0934 0 0
2:53 am 02:53 Clear 55 12.8 27 -2.8 34 34 NNW 9 15 30.16 1021 10 16.0934 0 0
3:53 am 03:53 Clear 54 12.2 28 -2.2 37 37 NW 12 19 30.17 1022 10 16.0934 0 0
4:53 am 04:53 Clear 53 11.7 28 -2.2 38 38 NW 14 22 30.18 1022 10 16.0934 0 0
5:53 am 05:53 Clear 54 12.2 28 -2.2 37 37 NW 16 26 30.2 1023 10 16.0934 0 0
6:53 am 06:53 Sunny 55 12.8 29 -1.7 37 37 NNW 12 19 30.24 1024 10 16.0934 0 0
7:53 am 07:53 Sunny 55 12.8 29 -1.7 37 37 NNW 14 22 30.25 1024 10 16.0934 0 0
8:53 am 08:53 Sunny 58 14.4 29 -1.7 33 33 NNW 13 20 30.27 1025 10 16.0934 0 0
9:53 am 09:53 Sunny 62 16.7 23 -5 22 22 NW 18 30 30.27 1025 10 16.0934 0 0
10:53 am 10:53 Sunny 64 17.8 19 -7.2 18 18 NW 21 33 30.28 1025 10 16.0934 0 0
11:53 am 11:53 Sunny 66 18.9 18 -7.8 16 16 NNW 16 26 30.23 1024 10 16.0934 0 0
12:53 pm 12:53 Sunny 67 19.4 18 -7.8 15 15 NNW 18 30 30.21 1023 10 16.0934 0 0
1:53 pm 13:53 Sunny 68 20 19 -7.2 15 15 NW 18 30 30.2 1023 10 16.0934 0 0
2:53 pm 14:53 Sunny 67 19.4 19 -7.2 16 16 N 18 30 30.2 1023 10 16.0934 0 0
3:53 pm 15:53 Sunny 66 18.9 20 -6.7 17 17 N 15 24 30.21 1023 10 16.0934 0 0
4:53 pm 16:53 Sunny 64 17.8 20 -6.7 18 18 N 10 17 30.22 1023 10 16.0934 0 0
5:53 pm 17:53 Clear 61 16.1 21 -6.1 21 21 WNW 16 26 30.23 1024 10 16.0934 0 0
6:53 pm 18:53 Clear 59 15 21 -6.1 23 23 WNW 10 17 30.24 1024 10 16.0934 0 0
7:53 pm 19:53 Clear 56 13.3 22 -5.6 27 27 NW 7 11 30.26 1025 10 16.0934 0 0
8:53 pm 20:53 Clear 55 12.8 23 -5 29 29 Calm 30.27 1025 10 16.0934 0 0
9:53 pm 21:53 Clear 52 11.1 24 -4.4 34 34 Calm 30.28 1025 10 16.0934 0 0
10:53 pm 22:53 Clear 53 11.7 23 -5 31 31 NNW 8 13 30.28 1025 10 16.0934 0 0
11:53 pm 23:53 Clear 51 10.6 24 -4.4 35 35 NW 6 9 30.27 1025 10 16.0934 0 0

Powered by AerisWeather